Location: Maiden
(35.5760°N, 81.2120°W)
Time: 08:29:26
(UTC-04:00)

Cosmos 1607 - Pass Details

Date: 14 June 2018
Orbit: 915 x 987 km, 65.0° (Epoch: 16 October)

Event Time Altitude Azimuth Distance (km) Brightness Sun altitude
Rises 23:02:27 0° 331° (NNW) 3,687 8.5 -22.1°
Reaches altitude 10° 23:05:03 10° 332° (NNW) 2,728 7.5 -22.4°
Maximum altitude 23:11:28 85° 61° (ENE) 973 3.9 -23.1°
Enters shadow 23:13:17 50° 145° (SE) 1,211 4.0 -23.3°
